| time (UTC) | temp C | wind direction | speed KPH | gust KPH | rain 1hr cm | rain 24hr cm | rain mn cm | humidity % | barometer mb |
| 20260505074007 | 2 | 91 | 0.0 | 1.6 | 0.00 | 0.00 | 0.00 | 81 | 1017.5 |
| 20260505073502 | 2 | 91 | 0.0 | 1.6 | 0.00 | 0.00 | 0.00 | 80 | 1017.4 |
| 20260505073442 | 2 | 91 | 0.0 | 3.2 | 0.00 | 0.00 | 0.00 | 80 | 1017.4 |
| 20260505072500 | 2 | 91 | 0.0 | 3.2 | 0.00 | 0.00 | 0.00 | 80 | 1017.4 |
| 20260505072000 | 3 | 91 | 0.0 | 1.6 | 0.00 | 0.00 | 0.00 | 80 | 1017.3 |
| 20260505071455 | 3 | 91 | 0.0 | 1.6 | 0.00 | 0.00 | 0.00 | 79 | 1017.3 |
| 20260505071442 | 3 | 91 | 0.0 | 3.2 | 0.00 | 0.00 | 0.00 | 80 | 1017.3 |
| 20260505070702 | 3 | 91 | 0.0 | 1.6 | 0.00 | 0.00 | 0.00 | 80 | 1017.3 |
| 20260505065931 | 3 | 91 | 0.0 | 1.6 | 0.00 | 0.00 | 0.00 | 80 | 1017.3 |
| 20260505065659 | 3 | 91 | 0.0 | 0.0 | 0.00 | 0.00 | 0.00 | 79 | 1017.3 |
| 20260505064932 | 3 | 91 | 0.0 | 0.0 | 0.00 | 0.00 | 0.00 | 79 | 1017.3 |
| 20260505064430 | 3 | 91 | 0.0 | 0.0 | 0.00 | 0.00 | 0.00 | 79 | 1017.3 |
| 20260505063931 | 3 | 91 | 0.0 | 1.6 | 0.00 | 0.00 | 0.00 | 79 | 1017.2 |
| 20260505063426 | 3 | 91 | 0.0 | 3.2 | 0.00 | 0.00 | 0.00 | 79 | 1017.3 |
| 20260505062906 | 3 | 91 | 0.0 | 3.2 | 0.00 | 0.00 | 0.00 | 79 | 1017.2 |
| 20260505062406 | 3 | 91 | 0.0 | 0.0 | 0.00 | 0.00 | 0.00 | 79 | 1016.9 |
| 20260505061904 | 3 | 91 | 0.0 | 0.0 | 0.00 | 0.00 | 0.00 | 78 | 1017.2 |
| 20260505061402 | 3 | 91 | 0.0 | 0.0 | 0.00 | 0.00 | 0.00 | 78 | 1017.2 |
| 20260505060902 | 3 | 91 | 0.0 | 0.0 | 0.00 | 0.00 | 0.00 | 77 | 1017.2 |
| 20260505060357 | 3 | 91 | 0.0 | 0.0 | 0.00 | 0.00 | 0.00 | 77 | 1017.3 |
| 20260505055857 | 3 | 91 | 0.0 | 0.0 | 0.00 | 0.00 | 0.00 | 77 | 1017.2 |
| 20260505055357 | 3 | 91 | 0.0 | 0.0 | 0.00 | 0.00 | 0.00 | 76 | 1017.0 |
| 20260505054853 | 3 | 91 | 0.0 | 0.0 | 0.00 | 0.00 | 0.00 | 76 | 1017.0 |
| 20260505054347 | 3 | 91 | 0.0 | 0.0 | 0.00 | 0.00 | 0.00 | 76 | 1017.0 |
| 20260505053847 | 3 | 91 | 0.0 | 1.6 | 0.00 | 0.00 | 0.00 | 76 | 1016.9 |
| 20260505053348 | 4 | 91 | 0.0 | 1.6 | 0.00 | 0.00 | 0.00 | 76 | 1016.9 |
| 20260505052848 | 4 | 91 | 0.0 | 0.0 | 0.00 | 0.00 | 0.00 | 76 | 1016.9 |
| 20260505052338 | 4 | 91 | 0.0 | 0.0 | 0.00 | 0.00 | 0.00 | 75 | 1016.9 |
| 20260505051829 | 4 | 91 | 0.0 | 3.2 | 0.00 | 0.00 | 0.00 | 75 | 1016.9 |
| 20260505051319 | 4 | 91 | 0.0 | 3.2 | 0.00 | 0.00 | 0.00 | 76 | 1016.9 |
| 20260505050816 | 5 | 91 | 0.0 | 1.6 | 0.00 | 0.00 | 0.00 | 74 | 1016.9 |
| 20260505050259 | 5 | 91 | 0.0 | 0.0 | 0.00 | 0.00 | 0.00 | 74 | 1016.9 |
| 20260505041750 | 6 | 91 | 0.0 | 1.6 | 0.00 | 0.00 | 0.00 | 71 | 1016.9 |
| 20260505041252 | 6 | 91 | 0.0 | 1.6 | 0.00 | 0.00 | 0.00 | 70 | 1016.8 |
| 20260505040748 | 6 | 91 | 0.0 | 0.0 | 0.00 | 0.00 | 0.00 | 70 | 1016.8 |
| 20260505040241 | 6 | 91 | 0.0 | 0.0 | 0.00 | 0.00 | 0.00 | 69 | 1016.7 |
| 20260505040215 | 6 | 91 | 0.0 | 0.0 | 0.00 | 0.00 | 0.00 | 68 | 1016.7 |
| 20260505035230 | 6 | 91 | 0.0 | 0.0 | 0.00 | 0.00 | 0.00 | 67 | 1016.6 |
| 20260505034953 | 7 | 91 | 0.0 | 0.0 | 0.00 | 0.00 | 0.00 | 66 | 1016.6 |
| 20260505034227 | 7 | 91 | 0.0 | 0.0 | 0.00 | 0.00 | 0.00 | 65 | 1016.6 |
| 20260505033726 | 7 | 91 | 0.0 | 0.0 | 0.00 | 0.00 | 0.00 | 63 | 1016.5 |
| 20260505033216 | 8 | 91 | 0.0 | 0.0 | 0.00 | 0.00 | 0.00 | 62 | 1016.5 |
| 20260505032709 | 8 | 91 | 0.0 | 0.0 | 0.00 | 0.00 | 0.00 | 60 | 1016.3 |
| 20260505032200 | 8 | 91 | 0.0 | 0.0 | 0.00 | 0.00 | 0.00 | 58 | 1016.3 |
| 20260505031919 | 9 | 91 | 0.0 | 0.0 | 0.00 | 0.00 | 0.00 | 57 | 1016.4 |
| 20260505031146 | 9 | 91 | 0.0 | 0.0 | 0.00 | 0.00 | 0.00 | 58 | 1016.4 |
| 20260505030637 | 9 | 91 | 0.0 | 0.0 | 0.00 | 0.00 | 0.00 | 56 | 1016.3 |
| 20260505030137 | 9 | 91 | 0.0 | 0.0 | 0.00 | 0.00 | 0.00 | 55 | 1016.0 |
| 20260505025637 | 10 | 91 | 0.0 | 3.2 | 0.00 | 0.00 | 0.00 | 51 | 1016.2 |
| 20260505025357 | 10 | 91 | 0.0 | 3.2 | 0.00 | 0.00 | 0.00 | 50 | 1016.3 |
| 20260505024628 | 10 | 114 | 0.0 | 0.0 | 0.00 | 0.00 | 0.00 | 51 | 1016.3 |
| 20260505024123 | 10 | 114 | 0.0 | 0.0 | 0.00 | 0.00 | 0.00 | 50 | 1016.2 |
| 20260505023622 | 10 | 114 | 0.0 | 4.8 | 0.00 | 0.00 | 0.00 | 49 | 1016.3 |
| 20260505023347 | 10 | 114 | 0.0 | 4.8 | 0.00 | 0.00 | 0.00 | 49 | 1016.3 |
| 20260505022626 | 10 | 142 | 0.0 | 3.2 | 0.00 | 0.00 | 0.00 | 49 | 1016.3 |
| 20260505022121 | 10 | 142 | 0.0 | 4.8 | 0.00 | 0.00 | 0.00 | 49 | 1016.4 |
| 20260505021559 | 10 | 144 | 0.0 | 9.7 | 0.00 | 0.00 | 0.00 | 49 | 1016.2 |
| 20260505021058 | 10 | 143 | 0.0 | 9.7 | 0.00 | 0.00 | 0.00 | 48 | 1016.3 |
| 20260505020555 | 10 | 159 | 3.2 | 12.9 | 0.00 | 0.00 | 0.00 | 48 | 1016.3 |
| 20260505020054 | 11 | 116 | 0.0 | 12.9 | 0.00 | 0.00 | 0.00 | 49 | 1016.4 |
| 20260505015548 | 11 | 111 | 1.6 | 6.4 | 0.00 | 0.00 | 0.00 | 48 | 1016.4 |
| 20260505015039 | 11 | 113 | 0.0 | 4.8 | 0.00 | 0.00 | 0.00 | 48 | 1016.3 |
| 20260505014542 | 11 | 111 | 0.0 | 12.9 | 0.00 | 0.00 | 0.00 | 49 | 1016.4 |
| 20260505014039 | 11 | 110 | 0.0 | 12.9 | 0.00 | 0.00 | 0.00 | 47 | 1016.4 |
| 20260505013747 | 11 | 215 | 3.2 | 14.5 | 0.00 | 0.00 | 0.00 | 47 | 1016.3 |
| 20260505013029 | 11 | 46 | 3.2 | 14.5 | 0.00 | 0.00 | 0.00 | 47 | 1016.3 |
| 20260505012529 | 11 | 88 | 1.6 | 12.9 | 0.00 | 0.00 | 0.00 | 48 | 1016.3 |
| 20260505012029 | 11 | 86 | 0.0 | 8.0 | 0.00 | 0.00 | 0.00 | 47 | 1016.3 |
| 20260505011758 | 11 | 117 | 1.6 | 14.5 | 0.00 | 0.00 | 0.00 | 48 | 1016.3 |
| 20260505011027 | 11 | 119 | 4.8 | 14.5 | 0.00 | 0.00 | 0.00 | 47 | 1016.3 |
| 20260505010525 | 11 | 123 | 1.6 | 9.7 | 0.00 | 0.00 | 0.00 | 47 | 1016.3 |
| 20260505010249 | 11 | 152 | 1.6 | 12.9 | 0.00 | 0.00 | 0.00 | 48 | 1016.4 |
| 20260505005525 | 11 | 110 | 3.2 | 16.1 | 0.00 | 0.00 | 0.00 | 47 | 1016.3 |
| 20260505005025 | 11 | 169 | 4.8 | 16.1 | 0.00 | 0.00 | 0.00 | 47 | 1016.4 |
| 20260505004758 | 11 | 115 | 3.2 | 19.3 | 0.00 | 0.00 | 0.00 | 46 | 1016.3 |
| 20260505004021 | 12 | 90 | 4.8 | 19.3 | 0.00 | 0.00 | 0.00 | 47 | 1016.4 |
| 20260505003521 | 12 | 110 | 3.2 | 11.3 | 0.00 | 0.00 | 0.00 | 47 | 1016.3 |
| 20260505003023 | 12 | 96 | 1.6 | 16.1 | 0.00 | 0.00 | 0.00 | 47 | 1016.2 |
| 20260505002516 | 12 | 99 | 1.6 | 17.7 | 0.00 | 0.00 | 0.00 | 46 | 1016.3 |
| 20260505002237 | 12 | 109 | 3.2 | 17.7 | 0.00 | 0.00 | 0.00 | 46 | 1016.3 |
| 20260505001511 | 12 | 92 | 1.6 | 12.9 | 0.00 | 0.00 | 0.00 | 46 | 1016.3 |
| 20260505001002 | 12 | 159 | 4.8 | 12.9 | 0.00 | 0.00 | 0.00 | 46 | 1016.3 |
| 20260505000502 | 12 | 134 | 1.6 | 16.1 | 0.00 | 0.00 | 0.00 | 47 | 1016.3 |
| 20260504235947 | 12 | 117 | 6.4 | 16.1 | 0.00 | 0.00 | 0.00 | 46 | 1016.2 |
| 20260504235447 | 12 | 222 | 3.2 | 12.9 | 0.00 | 0.00 | 0.00 | 46 | 1016.0 |
| 20260504234947 | 12 | 84 | 0.0 | 14.5 | 0.00 | 0.00 | 0.00 | 47 | 1016.0 |
| 20260504234448 | 12 | 133 | 0.0 | 14.5 | 0.00 | 0.00 | 0.00 | 47 | 1016.2 |
| 20260504233947 | 12 | 295 | 0.0 | 11.3 | 0.00 | 0.00 | 0.00 | 47 | 1016.0 |
| 20260504233707 | 12 | 345 | 1.6 | 12.9 | 0.00 | 0.00 | 0.00 | 47 | 1015.9 |
| 20260504232942 | 12 | 115 | 1.6 | 12.9 | 0.00 | 0.00 | 0.00 | 46 | 1015.9 |
| 20260504232443 | 12 | 101 | 1.6 | 9.7 | 0.00 | 0.00 | 0.00 | 47 | 1016.0 |
| 20260504231943 | 12 | 190 | 1.6 | 9.7 | 0.00 | 0.00 | 0.00 | 47 | 1016.0 |
| 20260504231438 | 12 | 233 | 0.0 | 9.7 | 0.00 | 0.00 | 0.00 | 47 | 1016.0 |
| 20260504231417 | 12 | 102 | 1.6 | 16.1 | 0.00 | 0.00 | 0.00 | 47 | 1016.0 |
| 20260504230433 | 13 | 117 | 6.4 | 16.1 | 0.00 | 0.00 | 0.00 | 45 | 1016.0 |
| 20260504225928 | 13 | 122 | 3.2 | 9.7 | 0.00 | 0.00 | 0.00 | 45 | 1016.2 |
| 20260504225431 | 13 | 119 | 1.6 | 11.3 | 0.00 | 0.00 | 0.00 | 46 | 1016.0 |
| 20260504224929 | 13 | 166 | 0.0 | 22.5 | 0.00 | 0.00 | 0.00 | 46 | 1015.9 |
| 20260504224655 | 13 | 118 | 8.0 | 22.5 | 0.00 | 0.00 | 0.00 | 46 | 1015.9 |
| 20260504223931 | 13 | 214 | 6.4 | 14.5 | 0.00 | 0.00 | 0.00 | 47 | 1015.9 |
| 20260504223429 | 13 | 120 | 4.8 | 14.5 | 0.00 | 0.00 | 0.00 | 44 | 1015.8 |
| 20260504223145 | 13 | 63 | 4.8 | 12.9 | 0.00 | 0.00 | 0.00 | 45 | 1015.9 |
| 20260504222425 | 13 | 279 | 4.8 | 12.9 | 0.00 | 0.00 | 0.00 | 44 | 1016.0 |
| 20260504221925 | 13 | 138 | 1.6 | 12.9 | 0.00 | 0.00 | 0.00 | 45 | 1015.9 |
| 20260504221425 | 14 | 97 | 3.2 | 16.1 | 0.00 | 0.00 | 0.00 | 44 | 1015.9 |
| 20260504220925 | 14 | 81 | 4.8 | 19.3 | 0.00 | 0.00 | 0.00 | 44 | 1015.9 |
| 20260504220426 | 14 | 126 | 3.2 | 19.3 | 0.00 | 0.00 | 0.00 | 43 | 1015.9 |
| 20260504215921 | 15 | 118 | 4.8 | 19.3 | 0.00 | 0.00 | 0.00 | 42 | 1015.8 |
| 20260504215420 | 15 | 148 | 1.6 | 19.3 | 0.00 | 0.00 | 0.00 | 42 | 1015.9 |
| 20260504214916 | 16 | 121 | 3.2 | 16.1 | 0.00 | 0.00 | 0.00 | 42 | 1015.9 |
| 20260504214416 | 16 | 95 | 3.2 | 16.1 | 0.00 | 0.00 | 0.00 | 40 | 1015.7 |
| 20260504214136 | 16 | 52 | 3.2 | 22.5 | 0.00 | 0.00 | 0.00 | 42 | 1015.6 |
| 20260504213416 | 16 | 98 | 4.8 | 22.5 | 0.00 | 0.00 | 0.00 | 41 | 1015.6 |
| 20260504212916 | 16 | 142 | 1.6 | 16.1 | 0.00 | 0.00 | 0.00 | 43 | 1015.4 |
| 20260504212416 | 16 | 124 | 3.2 | 14.5 | 0.00 | 0.00 | 0.00 | 40 | 1015.5 |
| 20260504211911 | 16 | 99 | 3.2 | 11.3 | 0.00 | 0.00 | 0.00 | 41 | 1015.4 |
| 20260504211412 | 16 | 125 | 3.2 | 11.3 | 0.00 | 0.00 | 0.00 | 42 | 1015.4 |
| 20260504210912 | 16 | 99 | 1.6 | 12.9 | 0.00 | 0.00 | 0.00 | 43 | 1015.4 |
| 20260504210412 | 15 | 27 | 3.2 | 12.9 | 0.00 | 0.00 | 0.00 | 42 | 1015.4 |
| 20260504210134 | 16 | 155 | 1.6 | 17.7 | 0.00 | 0.00 | 0.00 | 41 | 1015.4 |
| 20260504205417 | 16 | 34 | 3.2 | 17.7 | 0.00 | 0.00 | 0.00 | 41 | 1015.4 |
| 20260504205127 | 16 | 114 | 3.2 | 12.9 | 0.00 | 0.00 | 0.00 | 41 | 1015.3 |
| 20260504204357 | 16 | 90 | 4.8 | 12.9 | 0.00 | 0.00 | 0.00 | 40 | 1015.3 |
| 20260504203901 | 16 | 209 | 6.4 | 14.5 | 0.00 | 0.00 | 0.00 | 40 | 1015.3 |
| 20260504203400 | 16 | 113 | 4.8 | 14.5 | 0.00 | 0.00 | 0.00 | 40 | 1015.3 |
| 20260504202858 | 16 | 109 | 1.6 | 14.5 | 0.00 | 0.00 | 0.00 | 40 | 1015.3 |
| 20260504202358 | 16 | 91 | 3.2 | 17.7 | 0.00 | 0.00 | 0.00 | 42 | 1015.3 |
| 20260504202353 | 16 | 352 | 6.4 | 17.7 | 0.00 | 0.00 | 0.00 | 44 | 1015.4 |
| 20260504201613 | 16 | 0 | 4.8 | 19.3 | 0.00 | 0.00 | 0.00 | 41 | 1015.3 |
| 20260504200854 | 16 | 214 | 1.6 | 19.3 | 0.00 | 0.00 | 0.00 | 43 | 1015.1 |
| 20260504200841 | 16 | 92 | 3.2 | 19.3 | 0.00 | 0.00 | 0.00 | 41 | 1015.1 |
| 20260504195854 | 16 | 96 | 3.2 | 12.9 | 0.00 | 0.00 | 0.00 | 42 | 1015.1 |
| 20260504195354 | 16 | 30 | 3.2 | 19.3 | 0.00 | 0.00 | 0.00 | 42 | 1015.3 |
| 20260504194850 | 16 | 112 | 1.6 | 19.3 | 0.00 | 0.00 | 0.00 | 42 | 1015.1 |
| 20260504194350 | 16 | 144 | 6.4 | 17.7 | 0.00 | 0.00 | 0.00 | 40 | 1015.1 |
| 20260504194108 | 16 | 98 | 4.8 | 17.7 | 0.00 | 0.00 | 0.00 | 42 | 1015.1 |
| 20260504193613 | 16 | 130 | 4.8 | 16.1 | 0.00 | 0.00 | 0.00 | 41 | 1015.3 |
| 20260504192851 | 16 | 288 | 1.6 | 17.7 | 0.00 | 0.00 | 0.00 | 42 | 1015.1 |
| 20260504192346 | 16 | 168 | 1.6 | 17.7 | 0.00 | 0.00 | 0.00 | 40 | 1015.1 |
| 20260504191841 | 16 | 115 | 1.6 | 11.3 | 0.00 | 0.00 | 0.00 | 43 | 1015.1 |
| 20260504191340 | 16 | 92 | 1.6 | 11.3 | 0.00 | 0.00 | 0.00 | 40 | 1015.3 |
| 20260504190841 | 16 | 159 | 0.0 | 12.9 | 0.00 | 0.00 | 0.00 | 42 | 1015.3 |
| 20260504190342 | 16 | 88 | 3.2 | 12.9 | 0.00 | 0.00 | 0.00 | 43 | 1015.4 |
| 20260504190105 | 16 | 283 | 1.6 | 14.5 | 0.00 | 0.00 | 0.00 | 41 | 1015.5 |
| 20260504185341 | 15 | 117 | 0.0 | 14.5 | 0.00 | 0.00 | 0.00 | 43 | 1015.5 |
| 20260504184837 | 15 | 90 | 3.2 | 11.3 | 0.00 | 0.00 | 0.00 | 43 | 1015.4 |
| 20260504184337 | 15 | 94 | 1.6 | 14.5 | 0.00 | 0.00 | 0.00 | 45 | 1015.5 |
| 20260504183837 | 15 | 0 | 0.0 | 14.5 | 0.00 | 0.00 | 0.00 | 45 | 1015.6 |
| 20260504183337 | 15 | 117 | 4.8 | 12.9 | 0.00 | 0.00 | 0.00 | 43 | 1015.6 |
| 20260504182840 | 15 | 52 | 3.2 | 11.3 | 0.00 | 0.00 | 0.00 | 44 | 1015.6 |
| 20260504182335 | 15 | 78 | 1.6 | 11.3 | 0.00 | 0.00 | 0.00 | 43 | 1015.6 |
| 20260504182053 | 15 | 150 | 1.6 | 11.3 | 0.00 | 0.00 | 0.00 | 43 | 1015.6 |
| 20260504181322 | 15 | 109 | 1.6 | 11.3 | 0.00 | 0.00 | 0.00 | 44 | 1015.6 |
| 20260504180823 | 15 | 94 | 0.0 | 16.1 | 0.00 | 0.00 | 0.00 | 42 | 1015.5 |
| 20260504180318 | 15 | 111 | 4.8 | 16.1 | 0.00 | 0.00 | 0.00 | 43 | 1015.6 |
| 20260504175814 | 15 | 105 | 1.6 | 12.9 | 0.00 | 0.00 | 0.00 | 42 | 1015.6 |
| 20260504175536 | 15 | 97 | 4.8 | 12.9 | 0.00 | 0.00 | 0.00 | 45 | 1015.7 |
| 20260504174813 | 15 | 229 | 3.2 | 12.9 | 0.00 | 0.00 | 0.00 | 42 | 1015.6 |
| 20260504174309 | 15 | 117 | 3.2 | 11.3 | 0.00 | 0.00 | 0.00 | 43 | 1015.8 |
| 20260504174031 | 15 | 88 | 3.2 | 12.9 | 0.00 | 0.00 | 0.00 | 44 | 1015.7 |
| 20260504173259 | 14 | 60 | 1.6 | 12.9 | 0.00 | 0.00 | 0.00 | 47 | 1015.7 |
| 20260504172801 | 14 | 63 | 3.2 | 11.3 | 0.00 | 0.00 | 0.00 | 46 | 1015.7 |
| 20260504172259 | 14 | 106 | 3.2 | 14.5 | 0.00 | 0.00 | 0.00 | 48 | 1015.8 |
| 20260504171759 | 13 | 117 | 3.2 | 14.5 | 0.00 | 0.00 | 0.00 | 47 | 1015.9 |
| 20260504171259 | 13 | 168 | 0.0 | 8.0 | 0.00 | 0.00 | 0.00 | 48 | 1015.9 |
| 20260504170755 | 13 | 105 | 1.6 | 8.0 | 0.00 | 0.00 | 0.00 | 49 | 1015.8 |
| 20260504170255 | 13 | 180 | 0.0 | 4.8 | 0.00 | 0.00 | 0.00 | 50 | 1015.8 |
| 20260504160232 | 13 | 55 | 3.2 | 6.4 | 0.00 | 0.00 | 0.00 | 50 | 1015.9 |
| 20260504150947 | 12 | 112 | 0.0 | 6.4 | 0.00 | 0.00 | 0.00 | 52 | 1015.9 |
| 20260504150218 | 11 | 101 | 0.0 | 4.8 | 0.00 | 0.00 | 0.00 | 54 | 1016.0 |
| 20260504141200 | 8 | 109 | 0.0 | 1.6 | 0.00 | 0.00 | 0.00 | 65 | 1016.0 |
| 20260504140700 | 8 | 106 | 0.0 | 1.6 | 0.00 | 0.00 | 0.00 | 68 | 1016.0 |
| 20260504140155 | 7 | 106 | 0.0 | 1.6 | 0.00 | 0.00 | 0.00 | 72 | 1016.2 |
| 20260504130611 | 5 | 169 | 0.0 | 0.0 | 0.00 | 0.00 | 0.00 | 77 | 1015.8 |
| 20260504130112 | 5 | 169 | 0.0 | 0.0 | 0.00 | 0.00 | 0.00 | 76 | 1015.7 |
| 20260504110458 | 7 | 169 | 0.0 | 3.2 | 0.00 | 0.00 | 0.00 | 65 | 1015.1 |
| 20260504100603 | 10 | 105 | 0.0 | 6.4 | 0.00 | 0.00 | 0.00 | 54 | 1014.7 |
| 20260504100105 | 10 | 118 | 0.0 | 4.8 | 0.00 | 0.00 | 0.00 | 53 | 1014.7 |
| 20260504081807 | 11 | 116 | 0.0 | 8.0 | 0.00 | 0.00 | 0.00 | 49 | 1013.8 |
| 20260504081259 | 11 | 342 | 0.0 | 9.7 | 0.00 | 0.00 | 0.00 | 49 | 1013.8 |
| 20260504080800 | 11 | 124 | 0.0 | 12.9 | 0.00 | 0.00 | 0.00 | 49 | 1013.8 |
| 20260504080523 | 11 | 121 | 3.2 | 12.9 | 0.00 | 0.00 | 0.00 | 51 | 1013.8 |